Home   Weather   Garbsen   Past weeks

Flag for Germany Past Weather in Garbsen, Lower Saxony, Germany — Yesterday and Last 2 Weeks

Now
36 °F

Passing clouds.


Feels Like: 32 °F
Forecast: 27 / 35 °F
Wind: 5 mph from South

Location: Hannover

Current Time: Jan 20, 2017 at 9:28:09 pm

Latest Report: Jan 20, 2017 at 8:50 pm


Visibility: N/A

Pressure: 30.54 "Hg

Humidity: 87%

Dew Point: 32 °F

Location of GarbsenLocation

Past Weather in Garbsen — Graph

°F

Garbsen Temperature Yesterday

Maximum temperature yesterday: 39 °F (at 1:50 pm)
Minimum temperature yesterday: 27 °F (at 12:50 am)
Average temperature yesterday: 31 °F

High & Low Weather Summary for the Past Weeks

 TemperatureHumidityPressure
High43 °F (Jan 11, 3:20 pm)100% (Jan 6, 5:50 am)30.77 "Hg (Jan 6, 5:50 am)
Low12 °F (Jan 6, 5:20 am)48% (Jan 20, 12:20 pm)28.94 "Hg (Jan 13, 4:20 am)
Average31 °F86%30.18 "Hg
* Reported Jan 5 8:20 pm — Jan 20 8:20 pm, Garbsen, Weather by CustomWeather, © 2017

Note: Actual official high and low records may vary slightly from our data, if they occured in-between our weather recording intervals... More about our weather records

Advertising

Garbsen Weather History for the Previous 24 Hours

Scroll right to see more
 ConditionsComfort  
Time TempWeatherWind HumidityBarometerVisibility
8:20 pm
Fri, Jan 20
34 °FPassing clouds.2 mph93%30.54 "HgN/A
7:50 pm34 °FPassing clouds.1 mph93%30.57 "HgN/A
7:20 pm32 °FPassing clouds.2 mph93%30.57 "HgN/A
6:50 pm32 °FPassing clouds.2 mph93%30.57 "HgN/A
6:20 pm32 °FPassing clouds.No wind93%30.57 "HgN/A
5:50 pm32 °FPassing clouds.1 mph93%30.57 "HgN/A
5:20 pm34 °FPassing clouds.1 mph87%30.57 "HgN/A
4:50 pm36 °FPassing clouds.2 mph87%30.57 "HgN/A
4:20 pm36 °FScattered clouds.3 mph87%30.57 "HgN/A
3:50 pm37 °FScattered clouds.6 mph81%30.57 "HgN/A
3:20 pm37 °FScattered clouds.5 mph81%30.57 "HgN/A
2:50 pm37 °FScattered clouds.5 mph81%30.57 "HgN/A
2:20 pm37 °FScattered clouds.5 mph81%30.57 "HgN/A
1:50 pm37 °FScattered clouds.5 mph81%30.57 "HgN/A
1:20 pm37 °FBroken clouds.3 mph75%30.57 "HgN/A
12:50 pm37 °FScattered clouds.5 mph60%30.60 "HgN/A
12:20 pm39 °FScattered clouds.3 mph48%30.60 "HgN/A
11:50 am39 °FSunny.1 mph56%30.60 "Hg10 mi
11:20 am37 °FSunny.1 mph60%30.60 "Hg10 mi
10:50 am37 °FSunny.1 mph70%30.60 "Hg10 mi
10:20 am34 °FSunny.1 mph75%30.60 "Hg10 mi
9:50 am32 °FSunny.2 mph80%30.60 "Hg10 mi
9:20 am28 °FSunny.2 mph86%30.60 "Hg10 mi
8:50 am28 °FSunny.1 mph86%30.60 "Hg10 mi
8:20 am28 °FSunny.1 mph93%30.60 "Hg10 mi
7:50 am30 °FClear.1 mph86%30.60 "Hg10 mi
7:20 am30 °FClear.1 mph86%30.60 "Hg10 mi
6:50 am30 °FClear.1 mph86%30.60 "Hg10 mi
6:20 am30 °FClear.1 mph86%30.60 "Hg10 mi
5:50 am30 °FClear.2 mph86%30.60 "Hg10 mi
5:20 am30 °FClear.1 mph86%30.60 "Hg10 mi
4:50 am28 °FClear.No wind86%30.60 "Hg10 mi
4:20 am28 °FClear.No wind86%30.60 "Hg10 mi
3:50 am28 °FClear.1 mph86%30.63 "Hg10 mi
3:20 am28 °FClear.1 mph86%30.63 "Hg10 mi
2:50 am28 °FClear.No wind86%30.63 "Hg10 mi
2:20 am28 °FClear.1 mph86%30.63 "Hg10 mi
1:50 am28 °FClear.1 mph86%30.63 "Hg10 mi
1:20 am28 °FClear.No wind86%30.63 "Hg10 mi
12:50 am30 °FClear.1 mph75%30.63 "Hg10 mi
12:20 am30 °FClear.1 mph80%30.63 "Hg10 mi
11:50 pm
Thu, Jan 19
30 °FClear.1 mph80%30.63 "Hg10 mi
11:20 pm32 °FClear.1 mph75%30.63 "Hg10 mi
10:50 pm32 °FClear.1 mph75%30.63 "Hg10 mi
10:20 pm32 °FClear.2 mph75%30.63 "Hg10 mi
9:50 pm32 °FClear.1 mph75%30.66 "Hg10 mi
9:20 pm32 °FClear.No wind75%30.66 "Hg10 mi
Weather by CustomWeather, © 2017

See weather overviewHow to use our weather pages